Weather History for Fergus Falls, MN

Change the Weather History Date:

Thursday, October 18, 2012

  Actual Average Record
Temperature  
Mean Temperature 45 °F -  
Max Temperature 48 °F 54 °F 93 °F (2011)
Min Temperature 42 °F 32 °F 13 °F (1972)
Degree Days  
Heating Degree Days 20    
Moisture  
Dew Point 43 °F    
Average Humidity 96    
Maximum Humidity 100    
Minimum Humidity 93    
Precipitation  
Precipitation 0.39 in - - ()
Sea Level Pressure  
Sea Level Pressure 29.26 in    
Wind  
Wind Speed 17 mph (NNW)    
Max Wind Speed 34 mph    
Max Gust Speed 47 mph    
Visibility 5 miles    
Events Rain    
Averages and records for this station are not official NWS values.
T = Trace of Precipitation, MM = Missing Value Source: NWS Daily Summary

Daily Weather History Graph

Daily Weather History Graph

Search for Another Location

Airport:

Trip Planner

Search our weather history database for the weather conditions in past years. The results will help you decide how hot, cold, wet, or windy it might be!

Date:

Astronomy

Oct. 18, 2012 Rise Set
Actual Time 7:46 AM CDT 6:31 PM CDT
Civil Twilight 7:16 AM CDT 7:02 PM CDT
Nautical Twilight 6:41 AM CDT 7:37 PM CDT
Astronomical Twilight 6:06 AM CDT 8:11 PM CDT
Moon 11:42 AM CDT (10/18) 8:54 PM CDT (10/18)
Length of Visible Light 11h 46m
Length of Day
10h 45m
Waxing Crescent, 14% of the Moon is Illuminated
Oct 18
Waxing Crescent
Oct 21
First Quarter
Oct 29
Full
Nov 6
Last Quarter
Nov 13
New

Hourly Weather History & Observations

Time (CDT) Temp. Windchill Dew Point Humidity Pressure Visibility Wind Dir Wind Speed Gust Speed Precip Events Conditions
12:13 AM 42.8 °F 35.1 °F 41.0 °F 93% 29.19 in 5.0 mi West 16.1 mph 20.7 mph N/A   Overcast
12:34 AM 42.8 °F 35.4 °F 41.0 °F 93% 29.19 in 7.0 mi West 15.0 mph 18.4 mph N/A Rain Light Rain
12:53 AM 42.8 °F 34.8 °F 41.0 °F 93% 29.18 in 7.0 mi West 17.3 mph 20.7 mph N/A   Overcast
1:13 AM 42.8 °F 35.4 °F 41.0 °F 93% 29.18 in 3.0 mi West 15.0 mph - N/A   Overcast
1:33 AM 42.8 °F 36.6 °F 41.0 °F 93% 29.18 in 2.0 mi West 11.5 mph - N/A   Light Drizzle
1:53 AM 42.8 °F 36.6 °F 41.0 °F 93% 29.17 in 2.0 mi West 11.5 mph - 0.01 in   Light Drizzle
2:13 AM 42.8 °F 36.6 °F 42.8 °F 100% 29.16 in 2.5 mi West 11.5 mph - 0.01 in   Overcast
2:34 AM 42.8 °F 36.2 °F 42.8 °F 100% 29.16 in 2.5 mi West 12.7 mph - 0.01 in   Overcast
2:53 AM 42.8 °F 35.4 °F 42.8 °F 100% 29.15 in 2.5 mi West 15.0 mph - 0.01 in   Overcast
3:13 AM 42.8 °F 36.2 °F 42.8 °F 100% 29.14 in 3.0 mi West 12.7 mph - N/A   Overcast
3:33 AM 42.8 °F 35.8 °F 42.8 °F 100% 29.14 in 4.0 mi West 13.8 mph - N/A   Overcast
3:53 AM 44.6 °F 38.1 °F 42.8 °F 93% 29.14 in 2.5 mi WNW 13.8 mph - N/A   Overcast
4:13 AM 44.6 °F 38.4 °F 42.8 °F 93% 29.14 in 3.0 mi WNW 12.7 mph - N/A   Overcast
4:33 AM 44.6 °F 38.8 °F 42.8 °F 93% 29.14 in 3.0 mi WNW 11.5 mph - N/A   Overcast
4:53 AM 44.6 °F 37.8 °F 42.8 °F 93% 29.14 in 4.0 mi WNW 15.0 mph - N/A   Overcast
5:13 AM 44.6 °F 37.4 °F 44.6 °F 100% 29.13 in 3.0 mi WNW 16.1 mph 19.6 mph N/A   Light Drizzle
5:33 AM 44.6 °F 37.8 °F 44.6 °F 100% 29.13 in 3.0 mi WNW 15.0 mph - N/A   Overcast
5:53 AM 44.6 °F 37.8 °F 44.6 °F 100% 29.13 in 2.5 mi WNW 15.0 mph 18.4 mph N/A Rain Light Rain
6:13 AM 44.6 °F 38.8 °F 44.6 °F 100% 29.13 in 2.5 mi NW 11.5 mph - N/A   Overcast
6:33 AM 44.6 °F 38.1 °F 44.6 °F 100% 29.13 in 2.5 mi NW 13.8 mph 19.6 mph N/A   Overcast
6:53 AM 44.6 °F 38.1 °F 42.8 °F 93% 29.13 in 2.5 mi NW 13.8 mph 18.4 mph N/A   Overcast
7:13 AM 44.6 °F 38.1 °F 42.8 °F 93% 29.13 in 3.0 mi NW 13.8 mph - N/A   Overcast
7:33 AM 44.6 °F 38.8 °F 42.8 °F 93% 29.13 in 2.5 mi NW 11.5 mph - N/A   Overcast
7:53 AM 44.6 °F 39.2 °F 44.6 °F 100% 29.14 in 2.5 mi NW 10.4 mph - N/A   Overcast
8:13 AM 44.6 °F 39.2 °F 44.6 °F 100% 29.14 in 2.0 mi NW 10.4 mph - N/A   Overcast
8:33 AM 44.6 °F 39.2 °F 44.6 °F 100% 29.14 in 1.2 mi NNW 10.4 mph - N/A   Overcast
8:53 AM 44.6 °F 40.7 °F 44.6 °F 100% 29.15 in 2.0 mi North 6.9 mph - N/A   Overcast
9:13 AM 44.6 °F 40.2 °F 44.6 °F 100% 29.16 in 3.0 mi North 8.1 mph - N/A   Overcast
9:33 AM 46.4 °F 43.5 °F 46.4 °F 100% 29.17 in 1.8 mi NNE 5.8 mph - N/A   Overcast
9:53 AM 46.4 °F 41.5 °F 44.6 °F 93% 29.18 in 10.0 mi ENE 10.4 mph - N/A   Overcast
10:13 AM 44.6 °F 39.2 °F 44.6 °F 100% 29.19 in 10.0 mi NE 10.4 mph - N/A   Overcast
10:34 AM 44.6 °F 38.8 °F 42.8 °F 93% 29.21 in 10.0 mi NE 11.5 mph - N/A   Mostly Cloudy
10:53 AM 44.6 °F 40.7 °F 42.8 °F 93% 29.22 in 10.0 mi NNE 6.9 mph 18.4 mph N/A   Overcast
11:13 AM 44.6 °F 39.7 °F 42.8 °F 93% 29.24 in 10.0 mi NNE 9.2 mph - N/A   Overcast
11:34 AM 44.6 °F 39.2 °F 42.8 °F 93% 29.25 in 10.0 mi North 10.4 mph 17.3 mph N/A   Overcast
11:53 AM 44.6 °F 39.2 °F 42.8 °F 93% 29.26 in 10.0 mi North 10.4 mph - N/A   Overcast
12:13 PM 44.6 °F 38.8 °F 44.6 °F 100% 29.27 in 10.0 mi North 11.5 mph 17.3 mph 0.01 in   Light Drizzle
12:34 PM 44.6 °F 38.8 °F 44.6 °F 100% 29.28 in 10.0 mi North 11.5 mph 18.4 mph 0.01 in Rain Light Rain
12:53 PM 46.4 °F 40.4 °F 44.6 °F 93% 29.28 in 10.0 mi NNW 13.8 mph - 0.02 in Rain Rain
1:13 PM 46.4 °F 39.2 °F 44.6 °F 93% 29.28 in 10.0 mi NNW 18.4 mph - 0.01 in Rain Rain
1:34 PM 46.4 °F 40.4 °F 44.6 °F 93% 29.29 in 10.0 mi NNW 13.8 mph - 0.02 in   Drizzle
1:53 PM 46.4 °F 39.5 °F 46.4 °F 100% 29.28 in 10.0 mi NW 17.3 mph - 0.03 in Rain Rain
2:13 PM 48.2 °F - 46.4 °F 93% 29.27 in 7.0 mi NW 21.9 mph 27.6 mph 0.02 in Rain Light Rain
2:33 PM 48.2 °F - 46.4 °F 93% 29.28 in 4.0 mi NW 29.9 mph 39.1 mph 0.04 in Rain Heavy Rain
2:53 PM 46.4 °F 36.9 °F 46.4 °F 100% 29.29 in 7.0 mi NNW 32.2 mph 41.4 mph 0.06 in Rain Light Rain
3:13 PM 46.4 °F 37.2 °F 44.6 °F 93% 29.29 in 5.0 mi NNW 29.9 mph 41.4 mph 0.02 in Rain Light Rain
3:33 PM 44.6 °F 34.9 °F 44.6 °F 100% 29.29 in 4.0 mi NNW 28.8 mph 42.6 mph 0.05 in Rain Light Rain
3:53 PM 44.6 °F 34.2 °F 44.6 °F 100% 29.30 in 4.0 mi NNW 33.4 mph 42.6 mph 0.07 in Rain Light Rain
4:13 PM 44.6 °F 34.6 °F 44.6 °F 100% 29.31 in 5.0 mi NNW 31.1 mph 39.1 mph 0.01 in Rain Light Rain
4:33 PM 44.6 °F 34.6 °F 44.6 °F 100% 29.31 in 7.0 mi NNW 31.1 mph 40.3 mph 0.03 in Rain Light Rain
4:53 PM 44.6 °F 34.1 °F 44.6 °F 100% 29.32 in 5.0 mi NNW 34.5 mph 42.6 mph 0.04 in Rain Light Rain
5:13 PM 44.6 °F 34.9 °F 44.6 °F 100% 29.33 in 7.0 mi NNW 28.8 mph 43.7 mph 0.02 in Rain Light Rain
5:33 PM 44.6 °F 35.3 °F 44.6 °F 100% 29.34 in 7.0 mi NNW 26.5 mph 41.4 mph 0.04 in Rain Light Rain
5:53 PM 44.6 °F 34.9 °F 42.8 °F 93% 29.35 in 7.0 mi NNW 28.8 mph 41.4 mph 0.06 in Rain Light Rain
6:13 PM 44.6 °F 35.3 °F 42.8 °F 93% 29.36 in 10.0 mi NNW 26.5 mph 41.4 mph 0.01 in Rain Light Rain
6:33 PM 44.6 °F 34.2 °F 42.8 °F 93% 29.36 in 10.0 mi NNW 33.4 mph 46.0 mph 0.02 in Rain Light Rain
6:53 PM 44.6 °F 34.7 °F 42.8 °F 93% 29.37 in 10.0 mi NNW 29.9 mph 40.3 mph 0.02 in Rain Light Rain
7:13 PM 44.6 °F 35.3 °F 42.8 °F 93% 29.38 in 5.0 mi NNW 26.5 mph 47.2 mph 0.02 in Rain Light Rain
7:33 PM 44.6 °F 34.9 °F 42.8 °F 93% 29.38 in 5.0 mi NNW 28.8 mph 41.4 mph 0.03 in Rain Light Rain
7:53 PM 44.6 °F 35.3 °F 42.8 °F 93% 29.39 in 3.0 mi NNW 26.5 mph 39.1 mph 0.03 in Rain Light Rain
8:13 PM 44.6 °F 35.5 °F 42.8 °F 93% 29.40 in 5.0 mi NNW 25.3 mph 40.3 mph 0.01 in Rain Light Rain
8:33 PM 44.6 °F 35.1 °F 42.8 °F 93% 29.40 in 4.0 mi NNW 27.6 mph 39.1 mph 0.01 in Rain Light Rain
8:53 PM 44.6 °F 35.9 °F 42.8 °F 93% 29.41 in 3.0 mi North 23.0 mph 38.0 mph 0.01 in Rain Light Rain
9:13 PM 44.6 °F 34.9 °F 42.8 °F 93% 29.41 in 4.0 mi North 28.8 mph 38.0 mph N/A   Overcast
9:33 PM 42.8 °F 33.1 °F 42.8 °F 100% 29.42 in 3.0 mi North 25.3 mph 36.8 mph N/A Rain Light Rain
9:53 PM 42.8 °F 33.5 °F 42.8 °F 100% 29.43 in 3.0 mi North 23.0 mph 35.7 mph 0.01 in Rain Light Rain
10:13 PM 42.8 °F 33.3 °F 42.8 °F 100% 29.44 in 3.0 mi North 24.2 mph 34.5 mph 0.01 in Rain Light Rain
10:33 PM 42.8 °F 33.3 °F 42.8 °F 100% 29.46 in 3.0 mi North 24.2 mph 34.5 mph 0.01 in Rain Light Rain
10:53 PM 42.8 °F 33.1 °F 42.8 °F 100% 29.46 in 2.5 mi North 25.3 mph 39.1 mph 0.01 in Rain Light Rain
11:14 PM 42.8 °F 33.5 °F 42.8 °F 100% 29.47 in 2.5 mi North 23.0 mph 32.2 mph 0.01 in Rain Light Rain
11:33 PM 42.8 °F 33.3 °F 41.0 °F 93% 29.47 in 5.0 mi North 24.2 mph 28.8 mph 0.01 in   Overcast
11:53 PM 42.8 °F 33.1 °F 41.0 °F 93% 29.48 in 4.0 mi North 25.3 mph 34.5 mph 0.01 in   Overcast